SCP
10 9 7 5 5 5 5 5 5 5 4 3 3 3 4 3 3 2 2 1 1 1 1 1 1 1 1 1 2 2 2 1 1 1 1 2 2 2 2 2 2 1 1
9 8 7 6 6 5 5 5 5 5 5 4 3 4 4 3 3 2 2 1 1 1 1 1 1 1 1 1 2 2 1 1 1 1 1 2 2 2 2 2 2 1 1
7 7 7 7 6 5 5 4 5 5 5 4 4 4 4 3 3 2 2 1 1 1 1 1 1 2 2 1 1 1 1 1 1 1 1 2 2 2 2 2 2 1 1
6 6 6 6 6 5 4 3 4 4 4 4 4 4 3 3 3 2 2 2 2 1 1 1 2 2 2 1 1 1 1 1 1 1 1 1 2 1 1 1 1 1 1
6 5 6 6 5 4 3 3 3 3 3 3 4 3 3 3 2 2 2 2 2 2 2 2 2 2 1 1 1 1 1 1 1 1 1 1 1 1 1 1 1 1 1
6 6 5 5 4 4 3 3 3 3 4 4 4 4 3 3 2 2 2 2 2 2 2 3 2 1 1 0 0 0 0 0 0 0 1 1 1 1 1 1 1 1 0
5 5 5 5 4 4 3 3 3 4 4 5 6 5 5 3 2 2 1 2 2 2 3 3 2 1 0 0 0 0 0 0 0 0 0 0 0 1 1 1 0 0 0
5 5 5 5 5 4 4 4 3 4 5 6 7 7 6 4 3 2 1 2 2 2 2 2 1 1 0 0 0 0 0 0 0 0 0 0 0 1 1 0 0 0 0
5 5 5 5 5 5 5 4 4 4 5 6 6 7 6 4 3 1 1 2 2 2 1 1 1 0 0 0 0 0 1 1 0 0 0 0 0 0 0 0 0 1 1
5 5 6 6 6 5 5 5 4 4 4 4 4 4 4 3 2 1 1 2 2 1 1 0 0 0 0 0 0 0 1 0 0 0 0 0 1 1 0 0 0 1 1
5 6 7 7 7 6 5 5 4 3 3 2 1 1 2 1 1 0 0 1 1 0 0 0 0 0 0 0 0 0 0 0 0 0 0 0 1 1 1 0 0 1 0
5 6 7 8 7 6 6 5 4 3 2 1 1 1 0 0 0 0 0 0 0 0 0 0 0 0 0 0 0 0 0 0 0 0 0 0 1 1 0 0 0 0 0
5 5 6 7 7 7 6 5 4 3 2 1 1 0 0 0 0 0 0 0 0 0 0 0 0 0 0 0 0 0 0 0 0 0 0 0 0 0 0 0 0 0 0
4 4 5 6 7 7 6 4 3 2 1 1 1 0 0 0 0 0 0 0 0 0 0 0 0 0 0 0 0 0 0 0 0 0 0 0 0 0 0 0 0 0 0
3 3 4 5 7 6 4 2 1 1 1 1 0 0 0 0 0 0 0 0 0 0 0 0 0 0 0 0 0 0 0 0 0 0 0 0 0 0 0 0 0 0 0
2 2 3 5 6 5 2 0 0 0 0 0 0 0 0 0 0 0 0 0 0 0 0 0 0 0 0 0 0 0 0 0 0 0 0 0 0 0 0 0 0 0 0
2 2 2 4 5 4 1 0 0 0 0 0 0 0 0 0 0 0 0 0 0 0 0 0 0 0 0 0 0 0 0 0 0 0 0 0 0 0 0 0 0 0 0
2 2 2 3 4 3 1 0 0 0 0 0 0 0 0 0 0 0 0 0 0 0 0 0 0 0 0 0 0 0 0 0 0 0 0 0 0 0 0 0 0 0 0
2 2 2 2 2 2 1 0 0 0 0 0 0 0 0 0 0 0 0 0 0 0 0 0 0 0 0 0 0 0 0 0 0 0 0 0 0 0 0 0 0 0 0
1 1 1 1 1 1 0 0 0 0 0 0 0 0 0 0 0 0 0 0 0 0 0 0 0 0 0 0 0 0 0 0 0 0 0 0 0 0 0 0 0 0 0
1 1 0 0 0 0 0 0 0 0 0 0 0 0 0 0 0 0 0 0 0 0 0 0 0 0 0 0 0 0 0 0 0 0 0 0 0 0 0 0 0 0 0
1 0 0 0 0 0 0 0 0 0 0 0 0 0 0 0 0 0 0 0 0 0 0 0 0 0 0 0 0 0 0 0 0 0 0 0 0 0 0 0 0 0 0
0 0 0 0 0 0 0 0 0 0 0 0 0 0 0 0 0 0 0 0 0 0 0 0 0 0 0 0 0 0 0 0 0 0 0 0 0 0 0 0 0 0 0
0 0 0 0 0 0 0 0 0 0 0 0 0 0 0 0 0 0 0 0 0 0 0 0 0 0 0 0 0 0 0 0 0 0 0 0 0 0 0 0 0 0 0
0 0 0 0 0 0 0 0 0 0 0 0 0 0 0 0 0 0 0 0 0 0 0 0 0 0 0 0 0 0 0 0 0 0 0 0 0 0 0 0 0 0 0
0 0 0 0 0 0 0 0 0 0 0 0 0 0 0 0 0 0 0 0 0 0 0 0 0 0 0 0 0 0 0 0 0 0 0 0 0 0 0 0 0 0 0
Wind_Speed
3 3 2 2 2 1 1 0 1 1 1 2 2 1 1 1 1 1 2 2 2 1 2 2 3 2 1 1 1 1 1 1 2 2 1 1 1 1 1 1 1 2 3
4 3 2 2 2 1 1 1 1 2 2 2 2 2 2 2 2 1 0 1 0 0 1 1 2 1 0 1 1 1 1 1 2 2 1 2 2 1 1 1 1 1 2
4 4 3 2 2 2 2 2 2 2 2 2 3 3 3 3 3 3 3 2 3 3 3 2 2 2 2 1 1 1 1 1 0 1 1 1 1 1 1 1 1 1 1
4 4 3 2 2 2 3 3 3 3 3 3 4 4 4 4 4 4 3 4 5 5 5 5 4 4 3 2 2 2 1 1 0 0 0 1 1 1 1 1 1 1 1
4 4 4 3 3 4 4 4 4 4 4 4 5 5 5 4 5 5 4 6 6 6 6 6 7 8 9 6 4 4 3 2 2 1 2 2 2 2 2 1 1 1 2
5 5 4 4 4 5 5 5 4 5 5 5 5 6 6 6 9 10 7 6 6 6 5 5 6 7 8 9 11 10 8 5 3 3 2 2 2 2 2 2 1 2 1
5 5 4 5 5 5 5 5 5 5 5 6 6 7 8 9 11 10 10 7 7 7 7 6 6 7 6 5 8 9 11 11 8 4 4 3 3 3 3 3 3 2 1
6 5 5 5 6 6 6 6 6 5 5 6 6 7 7 9 10 9 9 8 8 8 8 8 7 7 8 6 6 7 8 8 7 6 5 4 4 3 3 2 2 2 3
6 5 5 5 6 6 6 6 6 6 6 6 6 7 7 7 10 9 6 6 7 8 8 9 8 8 10 8 6 6 6 5 7 8 7 6 7 7 5 3 3 3 2
6 6 6 5 6 6 5 5 6 6 6 7 8 7 7 8 10 11 7 5 6 6 6 8 12 10 11 10 6 5 5 4 3 4 4 3 4 5 7 5 4 3 2
7 7 6 6 6 6 5 5 6 6 7 7 7 7 7 7 9 11 9 4 5 5 5 5 6 9 10 10 8 5 4 2 1 2 2 3 3 3 4 4 4 3 3
7 7 6 6 5 6 6 5 5 6 6 6 6 6 5 6 7 9 11 10 7 6 5 5 4 6 7 7 6 6 6 4 2 2 3 3 3 3 3 2 2 1 1
7 7 6 6 5 5 4 4 4 3 4 4 4 5 5 5 6 9 10 10 9 6 4 4 3 3 3 3 4 6 5 3 3 4 4 4 3 2 2 2 1 1 1
7 7 6 6 6 6 4 4 4 3 3 3 4 5 5 5 4 4 4 5 6 5 3 2 1 2 2 3 3 4 4 4 4 3 3 3 2 2 2 2 2 2 1
7 6 6 7 7 7 8 8 7 7 5 3 4 4 5 5 3 4 3 3 3 4 2 0 1 1 2 3 3 3 4 4 4 4 3 3 3 3 2 2 2 2 3
6 6 5 6 6 7 8 8 14 11 13 14 11 9 7 7 6 7 8 7 7 6 3 2 3 3 4 4 3 4 4 4 4 4 3 3 3 3 3 3 3 3 3
5 5 5 5 6 6 7 7 7 8 13 14 13 12 10 7 6 6 6 6 5 4 2 3 3 3 4 4 4 4 4 4 4 4 3 3 3 3 3 3 3 3 3
5 4 5 5 5 5 6 6 6 7 6 6 6 7 6 5 4 4 5 3 1 1 2 3 4 4 4 4 4 4 4 3 3 4 4 3 3 3 3 3 3 4 3
4 4 3 4 4 5 5 5 6 7 7 7 6 3 2 2 1 3 3 2 2 3 4 4 4 4 4 3 3 3 3 3 3 3 3 4 4 4 3 4 3 4 4
4 5 4 4 4 4 5 5 6 6 6 6 5 5 3 3 2 2 1 1 3 4 4 4 4 4 4 3 3 3 3 3 4 4 4 4 4 4 4 4 4 3 3
5 5 4 3 3 4 4 5 5 5 6 5 5 4 2 1 2 3 3 3 4 4 4 4 3 3 3 3 3 4 4 4 4 4 4 4 4 3 3 3 3 4 3
5 5 4 4 4 5 4 5 5 6 6 7 5 4 1 1 3 4 4 4 4 4 3 3 3 4 4 4 4 5 5 6 6 6 5 5 4 4 4 3 3 3 3
4 5 5 5 5 4 3 4 5 5 5 5 5 4 3 2 3 4 4 4 4 3 3 3 4 4 5 5 6 6 6 6 6 6 6 6 5 4 4 4 5 4 4
5 6 6 6 5 4 4 4 4 4 5 5 4 4 4 3 3 4 3 3 3 3 3 3 4 6 7 5 5 7 6 6 6 6 8 7 6 5 5 5 5 6 4
4 5 5 5 5 4 4 4 4 4 4 4 4 4 3 3 4 4 3 3 3 3 3 3 3 5 7 8 8 6 5 6 6 6 6 6 6 5 5 6 5 5 4
4 5 5 5 4 4 4 4 4 4 4 3 4 3 2 3 3 3 3 2 2 2 2 2 3 4 6 7 7 6 4 4 5 6 6 6 6 5 5 5 7 6 5
Wind_Direction
151 157 140 145 156 177 221 292 57 47 355 343 7 6 338 293 229 214 236 232 218 246 257 254 253 253 257 276 287 268 248 220 237 269 297 338 15 47 87 150 168 155 170
137 135 132 131 130 128 91 43 61 65 49 27 32 41 29 25 18 31 13 26 35 322 316 333 331 318 344 326 319 299 276 258 231 253 297 339 357 24 29 355 89 136 137
129 132 125 116 109 99 80 74 77 78 69 54 57 52 39 36 33 39 43 36 38 37 35 28 17 21 20 13 358 334 319 304 237 218 274 321 350 0 353 351 31 38 71
119 120 114 106 102 94 85 77 72 73 71 63 62 54 48 43 39 41 49 52 52 47 42 40 33 29 20 9 12 356 351 4 354 314 325 342 349 340 11 341 28 42 53
117 113 106 99 90 92 87 79 72 68 73 67 63 56 47 45 37 41 49 62 58 54 49 50 55 56 54 48 42 25 20 22 21 33 31 32 17 2 355 335 41 62 60
110 102 97 95 90 90 90 86 79 74 70 71 65 61 57 51 41 46 54 62 57 54 51 50 64 61 64 66 64 57 49 43 35 40 35 34 20 12 1 4 40 46 38
106 100 98 95 93 87 90 90 83 75 69 73 69 68 64 47 44 51 55 66 61 52 45 43 53 51 48 67 71 62 54 47 47 56 48 28 27 13 17 22 22 22 29
111 103 97 96 95 90 86 85 82 79 76 75 73 71 70 51 43 51 61 71 66 55 47 44 49 43 35 41 66 66 58 46 44 58 59 46 40 16 16 26 30 36 65
110 104 100 100 96 90 87 87 84 83 78 74 74 72 69 53 36 40 63 79 74 64 57 49 46 46 30 41 65 73 70 66 60 65 68 62 50 39 35 37 30 38 44
109 103 98 98 99 97 93 93 94 92 89 85 76 70 68 57 38 39 53 84 87 83 74 63 51 43 33 35 51 60 63 50 50 56 63 52 51 46 44 40 34 33 37
108 105 98 95 97 100 97 96 99 98 97 94 91 80 70 62 53 45 44 67 77 79 73 64 48 40 43 40 45 50 42 9 10 69 82 71 56 50 51 50 42 42 42
107 105 102 102 104 104 103 106 108 112 111 108 105 97 83 69 57 54 56 59 64 74 72 72 67 51 48 42 41 25 9 2 11 50 62 55 52 49 45 48 49 47 75
107 103 101 96 87 95 104 111 121 127 122 119 114 101 91 83 72 67 67 68 67 72 76 82 76 54 35 45 37 18 12 17 27 43 50 50 48 40 32 27 15 7 11
110 106 104 99 89 73 70 72 70 58 82 99 101 105 102 89 70 58 72 77 87 86 91 103 65 1 16 33 32 35 37 31 31 39 41 36 30 30 28 23 15 4 21
117 115 110 101 94 78 63 45 55 48 38 67 81 87 100 94 57 43 62 60 49 44 1 173 101 86 79 68 58 46 38 33 33 29 28 23 22 23 20 19 14 7 18
132 134 125 120 115 111 104 82 53 58 56 60 70 85 81 91 91 66 56 48 37 17 16 53 57 50 49 50 50 54 50 33 22 23 25 21 17 16 15 13 14 15 12
135 136 131 131 133 131 128 122 109 73 60 58 64 77 91 96 80 62 45 23 1 3 33 62 60 50 47 47 45 46 47 35 18 20 22 17 9 6 7 6 15 16 10
130 125 132 136 138 135 134 135 135 129 114 90 69 75 89 87 67 42 29 12 17 59 57 65 63 58 51 44 42 39 41 32 18 19 16 6 1 5 5 7 20 13 359
127 128 127 130 134 135 136 134 128 125 123 124 125 111 105 108 36 357 359 355 37 60 65 64 59 57 55 50 42 39 39 34 19 11 17 7 4 6 10 5 11 8 354
111 118 130 137 138 144 139 132 127 126 124 124 124 126 149 174 162 123 93 30 49 61 57 59 57 52 45 38 34 31 31 29 18 17 21 7 5 3 3 4 4 1 356
132 131 139 149 143 129 119 118 117 118 118 112 109 107 104 134 110 97 83 61 59 62 54 56 63 51 45 30 26 28 31 28 20 15 11 0 1 358 351 355 358 356 352
137 143 147 127 106 97 102 113 116 116 117 117 121 125 127 93 88 88 85 79 72 68 61 40 54 53 38 31 34 32 30 27 21 10 360 352 350 346 346 353 351 348 354
137 129 115 102 101 110 123 116 115 118 119 123 128 126 117 88 88 88 84 77 70 64 56 39 45 52 45 40 44 43 35 24 7 2 353 347 344 346 351 352 346 352 6
136 132 126 124 128 132 120 114 114 118 120 120 118 117 118 105 92 88 86 84 77 70 67 62 60 61 60 51 53 56 44 23 1 358 349 332 333 345 345 343 341 345 355
134 129 128 131 134 132 124 124 124 124 123 123 122 121 121 123 118 113 103 94 87 79 69 68 72 73 72 67 71 66 50 34 26 358 336 326 330 340 341 338 337 333 342
127 125 125 128 126 122 122 121 117 116 117 118 115 113 115 117 115 112 109 101 98 91 88 88 83 87 96 90 86 85 66 31 12 355 331 315 319 332 340 331 331 331 338